Date,TemperatureHighF,TemperatureAvgF,TemperatureLowF,DewpointHighF,DewpointAvgF,DewpointLowF,HumidityHigh,HumidityAvg,HumidityLow,PressureMaxIn,PressureMinIn,WindSpeedMaxMPH,WindSpeedAvgMPH,GustSpeedMaxMPH,PrecipitationSumIn
2013-1-1,20,5,-12,14,-7,-26,75,58,48,30.38,30.01,4,1,11,0.00
2013-1-2,22,20,18,15,13,10,76,73,67,30.06,29.94,5,2,12,0.00
2013-1-3,21,14,9,14,4,-2,74,63,53,30.24,30.03,6,3,14,0.00
2013-1-4,30,19,10,17,8,0,71,64,53,30.11,29.97,5,2,16,0.00
2013-1-5,25,15,5,12,4,-4,69,63,54,30.07,29.83,4,1,11,0.00
2013-1-6,24,18,10,10,6,-2,70,60,53,30.20,29.98,5,2,11,0.00
2013-1-7,33,22,20,22,10,7,73,60,56,30.16,29.89,3,2,8,0.00
2013-1-8,38,26,11,27,17,2,77,70,60,29.95,29.71,9,2,18,0.00
2013-1-9,34,28,19,25,18,11,79,66,54,30.34,29.86,9,4,27,0.00
2013-1-10,42,34,20,30,23,13,85,66,46,30.67,29.70,8,4,20,0.00
2013-1-11,39,36,34,37,33,30,92,87,84,29.70,29.33,6,4,15,0.00
2013-1-12,37,16,4,34,6,-8,87,63,51,30.05,29.34,8,0,23,0.00
2013-1-13,11,5,0,-2,-7,-12,62,56,51,30.19,30.02,0,0,0,0.00
2013-1-14,13,7,0,1,-5,-11,65,59,50,31.11,30.19,5,1,12,0.00
2013-1-15,28,17,5,14,5,-4,70,61,46,30.23,29.77,5,2,15,0.00
2013-1-16,37,24,10,28,8,-13,82,50,33,30.22,29.61,8,4,17,0.00
2013-1-17,20,12,7,5,-5,-14,63,47,34,30.36,30.22,5,2,50,0.00
2013-1-18,41,26,16,29,18,5,76,68,60,30.24,29.69,7,3,14,0.00
2013-1-19,39,21,0,30,10,-15,83,63,42,30.20,29.65,14,5,34,0.00
2013-1-20,11,2,-4,-6,-14,-20,53,46,39,30.38,30.20,8,4,17,0.00
2013-1-21,-1,-7,-12,-19,-24,-29,47,42,36,30.33,30.23,7,4,22,0.00
2013-1-22,4,-4,-15,-10,-20,-30,50,45,39,30.37,30.20,4,2,10,0.00
2013-1-23,16,5,-7,2,-12,-28,61,44,27,30.58,30.12,12,4,24,0.00
2013-1-24,11,1,-8,-4,-14,-28,57,48,35,30.65,30.10,6,3,13,0.00
2013-1-25,19,13,2,7,-2,-12,61,50,43,30.28,29.89,9,4,21,0.00
2013-1-26,23,11,-3,9,-3,-16,60,52,43,30.32,30.08,6,2,13,0.00
2013-1-27,34,28,22,27,18,8,84,66,53,30.08,29.78,6,2,13,0.00
2013-1-28,37,32,29,31,28,25,87,83,78,29.87,29.62,6,2,13,0.00
2013-1-29,37,32,26,30,24,15,86,72,64,29.74,29.57,11,5,26,0.00
2013-1-30,26,17,7,15,5,-6,69,60,52,29.74,29.64,10,6,23,0.00
2013-1-31,7,1,-8,-6,-13,-26,58,49,41,30.23,29.74,9,6,125,0.00
2013-2-1,4,-4,-13,-6,-19,-28,66,49,40,30.28,30.03,5,2,12,0.00
2013-2-2,12,6,0,-2,-6,-11,65,57,43,30.16,29.94,4,2,8,0.00
2013-2-3,18,11,2,2,-2,-10,66,56,43,30.05,29.95,5,2,13,0.00
2013-2-4,16,10,0,6,-4,-14,68,53,42,30.05,29.69,6,2,14,0.00
2013-2-5,29,20,4,19,8,-7,75,61,43,30.05,29.61,8,3,19,0.00
2013-2-6,25,16,2,16,6,-9,74,66,58,30.07,29.91,5,2,11,0.00
2013-2-7,28,25,22,19,17,15,81,72,62,30.23,29.97,8,5,14,0.00
2013-2-8,30,21,8,16,9,-1,74,60,45,30.34,30.17,6,2,14,0.00
2013-2-9,32,29,20,26,22,12,83,74,68,30.17,29.90,9,5,21,0.00
2013-2-10,32,29,27,28,24,20,87,82,74,29.90,29.28,8,4,18,0.00
2013-2-11,30,25,13,27,16,3,87,70,57,30.00,29.32,9,4,21,0.00
2013-2-12,35,23,10,21,13,0,73,65,54,30.00,29.76,6,2,14,0.00
2013-2-13,42,32,20,29,23,12,86,71,55,29.77,29.56,4,1,11,0.00
2013-2-14,32,24,12,28,11,-7,87,61,23,30.14,29.58,11,3,23,0.00
2013-2-15,20,10,2,2,-6,-10,57,49,35,30.27,30.14,6,3,14,0.00
2013-2-16,20,8,-2,4,-6,-15,59,53,42,30.22,30.07,3,1,8,0.00
2013-2-17,33,20,0,18,8,-13,65,58,50,30.07,29.60,10,5,23,0.00
2013-2-18,35,23,8,27,12,-5,75,62,52,29.78,29.48,11,4,23,0.00
2013-2-19,11,4,0,-4,-12,-17,57,47,34,30.32,29.78,9,6,21,0.00
2013-2-20,15,3,-11,-1,-12,-26,58,48,41,30.43,30.32,5,2,9,0.00
2013-2-21,23,13,-1,12,-1,-14,69,54,42,30.44,30.06,6,3,11,0.00
2013-2-22,29,24,18,20,15,9,77,69,58,30.07,29.82,6,3,11,0.00
2013-2-23,37,26,17,24,16,7,76,67,52,29.91,29.80,4,2,8,0.00
2013-2-24,37,20,4,20,9,-5,69,61,49,30.07,29.91,3,1,8,0.00
2013-2-25,37,24,11,21,13,1,74,63,50,30.08,30.00,4,1,8,0.00
2013-2-26,36,25,12,24,16,3,83,68,58,30.03,29.86,8,3,16,0.00
2013-2-27,40,31,27,24,20,17,75,65,49,30.01,29.85,13,5,61,0.00
2013-2-28,31,28,21,20,16,9,67,60,52,30.20,30.00,7,4,17,0.00
2013-3-1,29,23,13,15,10,3,66,59,47,30.32,30.20,7,4,16,0.00
2013-3-2,28,13,4,10,2,-6,71,61,41,30.32,30.16,3,1,8,0.00
2013-3-5,140,26,21,100,18,14,74,70,62,30.27,30.07,8,5,16,0.01
2013-3-6,33,21,4,18,10,-7,73,62,49,30.39,30.26,7,2,11,0.00
2013-3-7,35,18,0,18,5,-13,76,55,43,30.37,30.25,7,2,14,0.00
2013-3-8,37,29,13,23,16,3,74,60,55,30.29,30.05,6,2,11,0.00
2013-3-9,37,37,37,23,23,23,55,55,55,30.05,29.65,3,3,6,0.00
2013-3-10,37,37,37,23,23,23,55,55,55,29.95,29.77,3,3,6,0.00
2013-3-11,37,37,37,23,23,23,55,55,55,29.87,29.73,3,3,6,0.00
2013-3-12,37,26,19,23,9,3,55,48,37,30.15,29.81,10,5,24,0.00
2013-3-13,34,25,10,15,10,2,67,54,43,30.33,30.15,5,2,11,0.00
2013-3-14,43,31,23,27,21,12,76,65,52,30.19,29.97,4,2,9,0.00
2013-3-15,35,30,22,28,23,15,85,76,63,29.97,29.81,6,3,11,0.00
2013-3-16,26,19,9,16,6,-7,77,57,41,30.83,29.89,6,4,16,0.00
2013-3-17,30,16,0,10,-1,-13,61,47,33,30.24,29.83,8,4,16,0.00
2013-3-18,29,23,12,24,12,-1,82,61,47,29.83,29.54,10,6,23,0.00
2013-3-19,27,14,7,4,-5,-13,58,42,25,30.16,29.76,9,6,24,0.00
2013-3-20,25,13,4,-1,-7,-12,48,40,31,30.18,30.07,8,5,124,0.00
2013-3-21,29,14,-4,8,-3,-18,56,45,33,30.11,30.01,4,2,9,0.00
2013-3-22,37,20,1,14,4,-12,60,50,33,30.08,30.01,4,1,6,0.00
2013-3-23,41,28,12,19,12,1,64,50,32,30.14,30.04,4,1,8,0.00
2013-3-24,34,30,27,22,18,15,76,61,52,30.08,29.97,9,4,19,0.00
2013-3-25,37,30,21,18,14,9,63,52,41,30.19,30.03,10,5,21,0.00
2013-3-26,44,33,25,23,17,14,62,53,31,30.27,30.18,4,2,12,0.00
2013-3-27,44,33,22,21,16,12,67,50,28,30.31,30.25,4,1,9,0.00
2013-3-28,48,33,17,22,16,8,70,53,30,30.32,30.23,6,1,11,0.00
2013-3-29,53,40,25,34,27,15,78,61,44,30.26,30.03,7,3,13,0.00
2013-3-30,53,43,34,40,35,27,88,74,52,30.57,29.79,7,3,14,0.09
2013-3-31,40,33,23,30,19,6,82,58,28,30.07,29.77,11,5,24,0.00
2013-4-1,35,25,15,13,8,4,60,48,31,30.24,30.07,7,4,17,0.00
2013-4-2,37,26,16,15,10,6,67,50,30,30.33,30.22,7,2,12,0.00
2013-4-3,48,34,15,30,18,6,71,55,33,30.36,30.00,10,4,24,0.00
2013-4-4,48,41,30,31,26,17,75,56,40,30.15,29.95,8,4,21,0.00
2013-4-5,45,34,24,28,20,12,78,57,30,30.23,29.89,7,4,16,0.00
2013-4-6,52,40,34,36,31,26,85,70,47,29.89,29.51,8,4,21,0.00
2013-4-7,50,40,33,34,30,13,85,69,52,29.92,29.74,5,2,12,0.00
2013-4-8,43,40,37,38,36,33,91,86,81,30.06,29.68,6,3,11,0.00
2013-4-9,45,38,34,34,27,18,85,64,46,30.14,29.99,11,6,27,0.00
2013-4-10,41,36,33,23,19,16,56,49,42,30.16,29.88,10,6,17,0.00
2013-4-11,36,32,28,29,24,14,86,72,42,29.90,29.68,9,6,15,0.00
2013-4-12,38,31,27,27,23,20,85,73,56,29.81,29.65,8,4,17,0.00
2013-4-13,41,32,24,27,22,16,82,67,50,29.93,29.78,5,1,11,0.00
2013-4-14,34,31,22,30,24,15,85,75,58,29.92,29.47,10,3,20,0.00
2013-4-15,41,36,32,31,28,24,85,71,62,29.92,29.46,9,5,24,0.00
2013-4-16,47,38,32,29,25,22,71,60,44,30.27,29.91,6,3,16,0.00
2013-4-17,41,36,30,30,26,22,85,69,61,30.28,29.91,8,4,14,0.00
2013-4-18,33,32,30,29,28,26,87,85,82,29.92,29.48,9,4,22,0.00
2013-4-19,38,32,28,27,20,7,87,65,41,29.95,29.46,17,2,23,0.00
2013-4-20,43,31,18,18,9,2,61,42,23,30.26,29.95,4,2,9,0.00
2013-4-21,48,39,30,40,31,16,87,73,53,30.27,29.96,12,5,27,0.00
2013-4-22,42,36,31,35,28,22,87,71,46,30.88,30.10,12,6,21,0.00
2013-4-23,44,34,26,28,22,15,86,64,34,30.13,30.02,9,4,17,0.00
2013-4-24,54,37,24,33,25,16,80,64,31,30.04,29.85,10,3,24,0.00
2013-4-25,53,41,29,31,27,24,80,59,36,30.16,29.94,6,3,14,0.00
2013-4-26,72,56,43,44,36,27,69,48,27,30.08,29.92,6,3,17,0.00
2013-4-27,77,57,34,46,36,27,89,51,16,30.09,29.82,6,2,13,0.00
2013-4-28,83,65,50,53,48,45,84,58,32,29.83,29.59,10,4,23,0.00
2013-4-29,76,61,47,53,42,33,80,54,24,29.80,29.50,6,3,15,0.00
2013-4-30,72,64,54,60,46,22,84,56,18,29.91,29.36,8,4,24,0.00
2013-5-1,54,42,35,37,32,27,89,66,52,30.46,29.91,8,4,18,0.00
2013-5-2,46,39,34,29,27,24,72,62,48,30.51,30.40,10,7,26,0.00
2013-5-3,38,34,30,34,28,23,94,79,63,30.40,30.14,9,6,19,0.00
2013-5-4,45,38,32,41,36,30,98,92,85,30.16,30.10,7,5,15,0.00
2013-5-5,67,49,37,50,42,36,98,79,54,30.88,30.02,5,2,11,0.00
2013-5-6,77,59,42,52,46,40,93,67,36,30.09,29.95,4,1,10,0.00
2013-5-7,82,64,45,54,47,42,96,61,26,30.02,29.89,6,1,15,0.00
2013-5-8,79,63,51,58,52,47,95,71,36,29.97,29.90,13,2,57,0.00
2013-5-9,57,51,42,56,47,30,96,85,59,30.10,29.92,9,5,18,0.00
2013-5-10,69,51,34,42,30,20,77,49,17,30.11,29.82,6,3,12,0.00
2013-5-11,55,46,38,40,28,19,70,50,31,30.14,29.82,16,8,32,0.00
2013-5-12,59,45,30,28,22,15,72,44,21,30.20,30.03,8,3,17,0.00
2013-5-13,72,53,30,47,36,25,87,57,26,30.07,29.60,11,3,24,0.00
2013-5-14,96,69,43,59,47,31,94,53,14,29.67,29.42,11,3,25,0.00
2013-5-15,82,67,49,52,46,38,82,50,23,29.86,29.61,6,2,18,0.00
2013-5-16,82,72,52,50,42,29,84,38,23,29.91,28.85,7,2,13,0.00
2013-5-17,66,60,55,57,50,30,96,74,26,30.00,29.90,6,3,14,0.00
2013-5-18,81,65,54,68,60,53,99,86,61,29.99,29.78,8,3,16,0.00
2013-5-19,83,68,61,70,64,61,99,90,61,29.80,26.66,9,2,22,0.00
2013-5-20,75,66,57,66,62,57,99,89,65,29.59,29.49,8,3,18,0.00
2013-5-21,57,50,47,57,50,47,99,98,95,29.73,29.53,5,3,11,0.00
2013-5-22,47,47,47,47,47,47,99,99,99,29.73,29.73,4,4,8,0.00
2013-5-23,64,52,44,47,42,32,99,74,31,30.31,29.73,5,3,15,0.00
2013-5-24,69,54,36,53,42,33,98,67,34,30.38,30.18,6,2,17,0.00
2013-5-25,68,58,52,53,50,47,99,77,54,30.25,30.19,9,3,19,0.00
2013-5-26,62,56,49,49,46,38,89,69,45,30.22,30.03,7,2,19,0.00
2013-5-27,61,58,55,55,52,48,90,80,71,30.05,29.84,4,2,14,0.00
2013-5-28,60,57,53,58,55,52,99,94,87,29.84,29.71,3,1,8,0.00
2013-5-29,79,66,54,69,62,53,99,86,62,29.83,29.60,6,2,14,0.00
2013-5-30,77,68,63,68,64,62,99,88,65,29.64,29.49,10,4,24,0.00
2013-5-31,77,67,60,63,59,54,99,77,49,29.54,29.46,10,4,24,0.00
2013-6-1,70,59,51,60,54,44,97,83,64,29.94,29.52,8,2,24,0.00
2013-6-2,66,56,46,50,44,41,87,67,42,30.08,29.94,6,2,16,0.00
2013-6-3,68,58,45,52,48,43,98,72,45,30.06,29.93,2,0,7,0.00
2013-6-4,64,58,53,59,51,44,97,79,61,30.08,29.97,7,2,16,0.00
2013-6-5,58,55,50,58,54,50,99,97,94,30.04,29.94,4,1,9,0.00
2013-6-6,56,52,48,53,50,48,99,96,89,30.03,29.96,14,2,42,0.00
2013-6-7,63,56,50,56,53,49,97,88,71,30.05,29.91,2,0,5,0.00
2013-6-8,71,62,52,58,56,51,99,79,59,29.92,29.86,5,1,14,0.00
2013-6-9,62,58,56,61,57,54,99,95,79,29.88,29.78,4,1,14,0.00
2013-6-10,72,64,57,64,60,57,99,90,72,29.85,29.79,3,1,7,0.00
2013-6-11,78,66,53,70,63,52,99,91,71,29.88,29.78,3,0,6,0.00
2013-6-12,62,62,61,61,60,57,96,93,86,29.88,29.81,3,1,6,0.00
2013-6-13,76,67,56,60,56,51,89,70,54,30.08,29.92,4,1,8,0.00
2013-6-14,78,68,54,64,59,51,94,75,57,30.08,29.83,8,2,18,0.00
2013-6-15,76,70,64,70,65,61,94,86,76,29.88,29.81,5,1,14,0.00
2013-6-16,69,69,69,66,66,66,89,89,89,29.82,29.82,0,0,0,0.00
2013-6-17,69,69,69,66,66,66,89,89,89,29.82,29.82,0,0,0,0.00
2013-6-18,76,69,59,66,62,56,89,80,55,30.09,29.82,3,0,8,0.00
2013-6-19,62,57,55,59,56,53,97,95,90,30.07,30.03,3,0,7,0.00
2013-6-20,87,79,64,73,69,61,95,71,52,30.00,29.85,7,2,14,0.00
2013-6-21,79,71,63,70,67,62,99,89,71,30.04,29.71,17,2,27,0.93
2013-6-22,80,71,65,72,68,65,99,92,72,29.98,29.83,5,1,11,0.00
2013-6-23,81,70,66,71,68,65,99,91,65,29.87,29.68,7,1,17,6.32
2013-6-24,83,72,61,73,67,60,99,86,65,29.91,29.80,5,1,13,0.00
2013-6-25,85,74,63,73,68,62,97,84,61,29.83,29.69,8,1,100,0.00
2013-6-26,87,78,70,76,71,65,98,81,58,29.79,29.65,4,1,12,0.00
2013-6-27,84,75,66,69,63,57,97,70,43,29.81,29.76,6,2,18,0.00
2013-6-28,77,69,64,66,62,59,96,79,63,29.82,29.77,8,3,23,0.00
2013-6-29,64,62,61,63,61,61,98,98,95,29.84,29.76,6,2,16,0.00
2013-6-30,61,61,61,61,61,61,98,98,98,29.84,29.84,3,3,7,0.00
2013-7-4,86,80,70,66,62,59,72,54,41,29.92,29.84,6,3,16,0.00
2013-7-5,86,78,68,68,64,58,76,63,47,29.89,27.48,8,4,19,0.00
2013-7-6,82,76,70,76,68,62,88,76,65,29.88,29.80,4,2,13,0.00
2013-7-7,90,80,73,76,71,66,87,74,60,29.85,29.81,6,2,17,0.00
2013-7-9,84,78,70,74,70,64,97,79,69,30.01,29.89,6,3,11,0.00
2013-7-10,78,72,60,64,60,56,91,69,50,30.17,30.02,5,1,14,0.00
2013-7-11,83,74,57,67,62,56,98,68,48,30.15,29.95,4,2,11,0.00
2013-7-12,87,77,68,68,63,59,78,62,48,30.00,29.85,9,5,23,0.00
2013-7-13,80,73,67,73,68,61,99,85,59,30.06,29.89,8,3,18,1.10
2013-7-14,84,74,69,73,68,62,95,80,61,30.17,30.03,5,2,12,0.11
2013-7-15,86,76,65,72,69,64,99,81,58,30.22,30.12,4,1,12,0.00
2013-7-16,89,80,72,76,73,69,96,80,56,30.18,30.11,5,1,11,0.00
2013-7-17,90,80,70,76,72,68,97,79,56,30.22,30.06,4,1,13,0.00
2013-7-18,91,82,72,76,73,70,95,77,54,30.07,29.69,7,3,20,0.00
2013-7-19,81,77,68,72,66,60,93,72,52,29.87,29.67,6,2,14,0.00
2013-7-20,75,69,63,65,62,59,97,80,61,31.24,29.83,2,0,8,0.00
2013-7-21,79,68,57,70,62,53,93,83,72,29.95,29.78,3,1,11,0.00
2013-7-22,83,73,67,74,66,57,95,79,54,29.84,29.67,6,3,17,0.00
2013-7-23,74,66,58,59,56,53,90,72,53,30.02,29.84,5,2,14,0.00
2013-7-24,76,65,55,63,59,54,97,83,55,30.78,29.94,3,0,6,0.00
2013-7-25,78,69,60,68,64,13,99,85,68,29.96,29.89,3,1,11,0.00
2013-7-26,67,62,55,63,56,48,94,81,67,30.09,29.89,11,3,25,0.00
2013-7-27,60,55,51,56,50,47,92,83,69,30.09,29.95,9,3,21,0.00
2013-7-28,71,60,51,57,52,47,92,78,57,30.06,29.98,6,2,12,0.00
2013-7-29,75,64,50,62,57,13,99,80,57,30.14,30.06,4,1,10,0.00
2013-7-30,70,64,59,66,63,59,99,94,83,30.11,30.05,4,0,7,0.00
2013-7-31,78,67,59,67,60,54,99,81,49,30.07,29.97,5,1,14,0.00
2013-8-1,79,66,53,63,58,51,96,76,48,30.04,29.85,3,1,11,0.00
2013-8-2,74,66,56,61,56,53,92,74,49,30.04,29.85,4,1,11,0.00
2013-8-3,74,63,51,60,54,49,97,74,47,30.20,30.04,3,1,11,0.00
2013-8-4,75,63,51,60,55,49,94,76,52,30.25,29.99,3,1,8,0.00
2013-8-5,79,68,59,70,64,55,98,88,68,30.01,29.77,4,1,10,0.00
2013-8-6,81,66,55,71,62,54,98,86,68,29.84,29.66,5,1,15,0.00
2013-8-7,74,65,57,61,57,52,98,77,48,30.02,29.78,4,2,14,0.00
2013-8-8,75,64,53,63,58,52,98,82,58,30.06,29.97,4,1,11,0.00
2013-8-9,73,65,56,60,56,52,97,75,51,30.12,29.99,5,1,13,0.00
2013-8-10,73,64,55,60,56,52,94,78,54,30.19,30.08,2,0,7,0.00
2013-8-11,77,64,56,66,60,55,97,89,61,30.09,30.03,2,0,5,0.00
2013-8-15,76,70,60,65,61,57,91,74,58,29.92,29.86,3,1,9,0.00
2013-8-16,78,66,58,65,59,55,96,78,53,30.68,29.91,4,1,11,0.00
2013-8-17,80,66,53,63,58,52,97,76,49,29.99,29.88,6,2,14,0.00
2013-8-18,61,56,55,57,54,53,93,93,86,29.91,29.88,0,0,2,0.00
2013-8-19,55,55,55,53,53,53,93,93,93,29.90,29.90,0,0,1,0.00
2013-8-20,55,55,55,53,53,53,93,93,93,29.90,29.90,0,0,1,0.00
2013-8-21,55,55,55,53,53,53,93,93,93,29.90,29.90,0,0,1,0.00
2013-8-27,89,83,72,78,74,69,91,77,65,29.99,29.90,4,1,11,0.00
2013-8-28,87,75,66,76,70,66,99,85,54,30.11,29.99,3,0,7,0.00
2013-8-29,89,78,68,80,73,66,99,86,64,30.09,29.91,4,1,11,0.00
2013-8-30,81,73,66,72,68,62,94,83,63,30.04,29.90,3,1,13,0.00
2013-8-31,86,71,60,72,65,59,99,84,57,30.00,29.81,7,1,22,0.00
2013-9-1,71,66,59,64,60,53,96,81,69,30.10,29.85,5,2,14,0.00
2013-9-2,66,58,52,56,53,50,94,83,67,30.22,30.10,3,1,10,0.00
2013-9-3,76,61,46,62,55,45,99,83,55,30.21,30.07,4,1,10,0.00
2013-9-4,81,67,55,68,60,54,98,81,56,30.26,30.10,2,0,9,0.00
2013-9-5,82,68,55,66,60,53,96,77,48,30.34,30.18,3,0,8,0.00
2013-9-6,89,76,65,72,68,63,97,77,49,30.94,29.94,6,2,16,0.00
2013-9-7,89,76,66,74,68,60,96,76,49,30.12,29.94,2,1,7,0.00
2013-9-8,70,64,61,63,59,53,89,82,73,30.16,29.99,3,1,11,0.00
2013-9-9,87,73,64,76,70,60,99,89,66,29.99,29.73,5,1,13,0.00
2013-9-10,82,72,64,70,66,60,97,82,52,30.82,29.84,5,2,11,0.00
2013-9-11,82,70,59,66,58,49,97,69,34,30.16,30.07,6,2,17,0.00
2013-9-12,72,64,52,57,50,46,92,62,42,30.25,27.93,8,3,17,0.00
2013-9-13,69,55,42,52,47,40,99,75,45,32.76,30.08,4,1,8,0.00
2013-9-14,71,56,45,59,52,43,99,86,52,30.09,29.91,5,1,14,0.00
2013-9-15,64,57,47,58,54,46,99,90,70,32.18,29.91,4,1,15,0.00
2013-9-16,66,51,38,49,44,38,99,80,46,30.42,30.25,3,1,11,0.00
2013-9-17,69,56,43,58,51,42,98,85,63,30.86,29.95,9,3,19,0.00
2013-9-18,72,65,58,70,64,58,99,96,89,29.95,26.71,4,2,11,0.00
2013-9-19,74,68,62,70,67,61,99,96,81,29.79,29.63,8,1,34,0.00
2013-9-20,63,58,50,60,53,48,96,86,64,29.94,29.78,4,2,13,0.00
2013-9-21,61,52,45,50,47,44,99,86,63,30.02,28.44,3,1,9,0.00
2013-9-22,71,56,42,58,50,42,99,83,62,30.00,29.86,6,2,20,0.00
2013-9-23,73,62,52,58,53,49,92,76,54,29.96,29.88,8,3,21,0.00
2013-9-24,74,60,48,59,54,47,99,82,54,29.99,29.92,4,1,10,0.00
2013-9-25,73,59,47,60,53,47,99,82,55,29.99,29.87,6,1,15,0.00
2013-9-26,80,66,54,63,57,51,93,76,54,29.94,29.82,9,3,23,0.00
2013-9-27,81,72,65,68,62,60,89,74,56,29.92,29.79,10,5,24,0.00
2013-9-28,74,61,47,63,56,45,96,83,65,29.94,29.63,10,4,25,0.00
2013-9-29,74,58,42,55,48,42,99,74,43,29.97,29.78,8,2,16,0.00
2013-9-30,76,66,56,57,52,47,77,62,47,29.79,29.59,8,4,23,0.00
2013-10-1,72,63,47,55,48,34,86,60,26,29.98,29.57,5,2,16,0.00
2013-10-2,74,56,41,54,46,39,97,76,33,30.05,29.86,5,1,16,0.00
2013-10-3,57,55,54,56,54,53,99,98,97,29.97,29.87,2,1,8,0.00
2013-10-4,58,55,53,56,54,53,99,94,88,30.02,29.88,2,2,9,0.00
2013-10-5,58,54,47,58,54,46,99,98,95,29.90,27.50,3,1,11,0.00
2013-10-6,52,48,44,51,48,43,99,98,92,29.86,29.70,5,1,16,0.00
2013-10-7,64,50,41,51,44,41,99,83,46,29.99,29.84,4,1,12,0.00
2013-10-8,75,60,45,54,48,43,96,68,43,29.98,29.80,10,5,26,0.00
2013-10-9,75,66,55,57,52,48,82,61,48,30.03,29.91,7,4,16,0.00
2013-10-10,77,68,49,58,54,14,94,61,46,30.03,29.88,8,4,23,0.00
2013-10-11,73,64,55,61,55,51,93,72,54,29.89,29.60,13,6,31,0.00
2013-10-12,58,50,42,56,46,41,95,85,71,30.18,29.68,6,3,18,0.00
2013-10-13,60,46,35,46,39,34,99,80,44,30.44,30.18,3,1,8,0.00
2013-10-14,53,46,37,47,41,35,98,84,63,30.41,29.99,4,1,12,0.00
2013-10-15,51,48,45,51,48,44,99,99,97,29.99,29.68,8,3,21,0.00
2013-10-16,54,45,36,44,41,33,98,85,57,29.97,29.85,7,2,19,0.00
2013-10-17,54,44,36,47,42,33,98,90,67,29.88,29.78,6,1,13,0.00
2013-10-18,53,44,36,42,38,33,99,81,50,29.99,29.85,8,2,20,0.00
2013-10-19,48,40,32,41,36,29,97,86,59,29.85,29.70,4,1,10,0.00
2013-10-20,39,35,31,38,33,28,98,92,87,29.89,29.65,6,1,14,0.00
2013-10-21,40,34,29,33,25,22,86,70,57,29.96,29.88,6,2,17,0.00
2013-10-22,42,34,26,34,28,22,89,82,69,30.04,29.96,4,1,12,0.00
2013-10-23,38,34,32,32,26,19,90,74,54,30.12,30.00,6,2,14,0.00
2013-10-24,42,37,32,32,28,21,80,70,56,30.32,30.11,6,2,16,0.00
2013-10-25,54,43,29,43,35,25,86,74,59,30.32,29.78,7,3,21,0.00
2013-10-26,49,42,35,40,30,27,75,65,55,30.11,29.80,13,4,24,0.00
2013-10-27,56,41,30,36,30,25,85,67,45,30.17,29.83,8,3,19,0.00
2013-10-28,43,35,29,30,23,18,81,63,39,30.47,30.17,5,2,14,0.00
2013-10-29,37,34,28,34,28,21,89,78,65,30.43,30.12,4,1,9,0.00
2013-10-30,48,42,36,47,42,33,98,96,89,30.77,29.68,3,1,6,0.00
2013-10-31,47,43,39,47,42,38,98,96,92,29.68,29.42,3,1,11,0.00
2013-11-1,51,42,36,40,36,30,95,82,57,29.88,29.44,6,2,13,0.00
2013-11-2,49,38,30,36,30,26,87,74,48,30.11,29.87,5,1,14,0.00
2013-11-3,56,43,30,37,32,26,86,66,44,30.13,29.90,15,6,29,0.00
2013-11-4,48,43,31,44,36,28,91,77,58,30.15,29.83,11,4,24,0.00
2013-11-5,43,33,26,36,28,21,91,82,62,30.83,30.06,6,1,11,0.00
2013-11-6,39,32,26,34,28,22,91,85,74,30.17,30.05,4,1,9,0.00
2013-11-7,38,28,21,31,24,17,86,81,69,30.25,30.17,4,1,11,0.00
2013-11-8,43,33,21,37,26,17,90,77,61,30.20,29.61,8,3,18,0.00
2013-11-9,43,40,37,38,33,26,91,75,61,30.21,29.63,9,5,22,0.00
2013-11-10,44,37,29,31,28,23,78,70,59,30.34,30.11,7,2,17,0.00
2013-11-11,36,23,15,28,9,3,73,54,43,30.73,30.13,13,6,27,0.00
2013-11-12,29,20,11,11,6,2,67,57,39,30.78,30.43,5,2,14,0.00
2013-11-13,49,34,20,33,23,10,75,63,47,30.43,29.90,7,3,19,0.00
2013-11-14,51,40,30,38,32,25,81,72,58,29.91,29.75,4,1,12,0.00
2013-11-15,55,39,26,40,31,20,88,73,51,29.86,29.64,9,2,14,0.00
2013-11-16,46,43,39,43,39,33,94,86,70,29.64,29.26,8,3,18,0.00
2013-11-17,44,39,31,40,34,22,95,83,70,29.83,29.31,9,4,24,0.00
2013-11-18,34,28,19,23,18,12,78,66,54,30.27,29.83,9,4,23,0.00
2013-11-19,47,34,18,30,23,12,79,65,46,30.27,29.91,13,6,28,0.01
2013-11-20,47,42,38,32,29,26,81,60,48,30.06,29.88,10,5,28,0.00
2013-11-21,38,30,23,34,23,11,88,73,58,30.53,30.05,9,4,18,0.00
2013-11-22,34,22,12,12,6,-3,67,52,25,30.64,30.44,11,4,21,0.00
2013-11-23,18,10,6,2,-4,-8,65,52,32,30.84,30.65,7,3,21,0.00
2013-11-24,31,20,5,16,6,-6,63,54,42,30.70,29.95,10,5,26,0.00
2013-11-25,40,33,27,28,21,15,78,62,53,30.09,29.88,8,4,22,0.00
2013-11-26,29,19,11,16,2,-4,59,47,35,30.40,30.09,12,6,26,0.00
2013-11-27,24,16,5,8,2,-6,67,53,43,30.40,30.07,6,2,13,0.00
2013-11-28,26,21,9,11,6,-2,65,53,44,30.51,30.07,6,2,18,0.00
2013-11-29,32,22,7,18,10,-3,70,60,49,30.52,30.13,10,3,20,0.00
2013-11-30,40,30,19,26,20,11,77,65,55,30.16,30.03,5,2,9,0.00
2013-12-1,30,30,30,20,20,20,66,66,66,30.15,30.15,4,4,8,0.00
2013-12-2,38,31,30,31,24,20,87,73,66,30.16,29.89,4,3,8,0.00
2013-12-3,34,34,31,31,30,27,89,87,86,30.10,29.89,4,2,9,0.00
2013-12-4,31,27,14,27,22,7,88,83,71,30.09,29.77,3,0,20,0.00
2013-12-5,14,5,-3,7,-5,-14,74,61,51,30.60,29.96,6,2,24,0.00
2013-12-6,6,-4,-10,-8,-16,-23,58,54,49,30.92,30.61,4,2,10,0.00
2013-12-7,1,-8,-16,-14,-21,-29,57,50,45,31.00,30.85,5,1,12,0.00
2013-12-8,12,4,-11,3,-6,-24,70,62,50,30.85,30.32,4,1,9,0.00
2013-12-9,7,-1,-8,-2,-12,-21,66,57,47,30.38,30.15,6,2,19,0.00
2013-12-10,8,3,-2,-5,-8,-13,65,58,49,30.58,30.07,6,2,14,0.00
2013-12-11,2,-5,-12,-12,-18,-26,56,50,43,30.84,30.58,5,2,14,0.00
2013-12-12,18,10,-3,7,-2,-15,65,57,51,30.80,30.15,4,1,10,0.00
2013-12-13,17,11,8,8,1,-3,67,62,56,30.31,30.14,7,5,14,0.00
2013-12-14,16,9,-2,5,-2,-15,71,62,52,30.30,30.08,5,2,12,0.00
2013-12-15,4,-1,-4,-13,-16,-20,57,49,39,30.18,30.11,8,2,13,0.00
2013-12-16,19,8,-1,12,-3,-16,74,59,47,30.14,29.87,7,2,16,0.00
2013-12-17,31,20,2,26,10,-61,85,65,48,30.11,29.85,8,4,58,0.00
2013-12-18,34,20,3,22,11,-7,76,66,56,30.08,29.65,9,2,19,0.00
2013-12-19,23,16,13,16,6,1,74,63,55,30.11,29.83,9,6,15,0.00
2013-12-20,29,14,9,9,5,0,73,67,58,30.63,29.86,6,3,11,0.00
2013-12-21,21,17,14,12,8,5,71,66,61,30.03,29.87,7,3,14,0.00
2013-12-22,20,14,8,10,5,-2,70,65,57,30.24,29.97,7,3,14,0.00
2013-12-23,8,-1,-12,-3,-14,-26,62,53,46,30.51,30.24,5,3,14,0.00
2013-12-24,36,-2,-19,30,-15,-34,80,51,42,30.49,30.13,8,3,17,0.00
2013-12-25,26,15,10,16,6,-1,71,65,55,30.14,30.05,6,2,16,0.00
2013-12-26,22,13,11,14,3,2,71,65,64,30.16,29.92,1,1,3,0.00
2013-12-27,36,25,9,27,18,-1,82,72,63,30.15,29.89,5,2,12,0.00
2013-12-28,26,24,22,21,19,6,81,80,78,30.09,29.91,2,0,4,0.00
2013-12-29,24,6,-17,19,-6,-33,80,56,31,30.30,29.91,7,1,14,0.00
2013-12-30,3,-7,-19,-7,-20,-35,65,52,41,30.26,30.15,3,1,7,0.00
2013-12-31,-2,-9,-14,-15,-22,-28,59,51,44,30.39,30.16,4,1,7,0.00
2014-1-1,0,-6,-10,-14,-19,-22,53,51,48,33.50,30.39,3,2,5,0.00
2014-1-2,0,0,0,-15,-15,-15,48,48,48,33.50,33.50,3,3,5,0.00